CW2640 Weather Reports


time (UTC)temp
C
wind
direction
speed
KPH
gust
KPH
rain 1hr
cm
rain 24hr
cm
rain mn
cm
humidity
%
barometer
mb
20260906081747 24 80 0.0 0.0 0.00 0.00 0.00 98 1012.8
20260906074742 25 80 0.0 0.0 0.00 0.00 0.00 92 1013.1
20260906071740 25 80 0.0 0.0 0.00 0.00 0.00 91 1013.4
20260906064740 26 80 0.0 0.0 0.00 0.00 0.00 97 1013.4
20260906061740 26 82 0.0 0.0 0.00 0.00 0.00 95 1013.3
20260906054738 26 80 0.0 0.0 0.00 0.00 0.00 92 1013.5
20260906051737 26 81 0.0 0.0 0.00 0.00 0.00 95 1014.0
20260906044734 26 88 0.0 0.0 0.00 0.00 0.00 95 1013.3
20260906041733 26 92 0.0 0.0 0.00 0.00 0.00 94 1013.1
20260906034733 27 93 0.0 0.0 0.00 0.00 0.00 92 1013.3
20260906031733 27 95 0.0 0.0 0.00 0.00 0.00 91 1013.1
20260906024728 28 95 0.0 0.0 0.00 0.00 0.00 89 1013.0
20260906021729 28 96 0.0 0.0 0.00 0.00 0.00 87 1012.8
20260906014728 30 99 0.0 0.0 0.00 0.00 0.00 85 1012.4
20260906011722 30 101 0.0 0.0 0.00 0.00 0.00 84 1011.9
20260906004719 30 102 0.0 0.0 0.00 0.00 0.00 80 1011.8
20260906001713 30 99 0.0 0.0 0.00 0.00 0.00 79 1011.3
20260905234711 32 94 0.0 0.0 0.00 0.00 0.00 71 1011.4
20260905231710 33 90 0.0 0.0 0.00 0.00 0.00 64 1011.3
20260905224710 35 83 0.0 0.0 0.00 0.00 0.00 57 1011.0
20260905221706 37 80 0.0 0.0 0.00 0.00 0.00 49 1011.1
20260905214703 36 80 0.0 0.0 0.00 0.00 0.00 49 1011.2
20260905211702 37 80 0.0 0.0 0.00 0.00 0.00 51 1011.7
20260905204658 37 80 0.0 0.0 0.00 0.00 0.00 49 1011.9
20260905201659 35 80 0.0 0.0 0.00 0.00 0.00 55 1012.0
20260905194655 36 80 0.0 0.0 0.00 0.00 0.00 51 1012.3
20260905191654 36 80 0.0 0.0 0.00 0.00 0.00 55 1012.7
20260905184648 37 80 0.0 0.0 0.00 0.00 0.00 51 1013.2
20260905181643 35 80 0.0 0.0 0.00 0.00 0.00 55 1013.8
20260905174641 36 80 0.0 0.0 0.00 0.00 0.00 54 1014.1
20260905171635 36 80 0.0 0.0 0.00 0.00 0.00 56 1014.6
20260905164630 35 80 0.0 0.0 0.00 0.00 0.00 58 1014.8
20260905161628 35 80 0.0 0.0 0.00 0.00 0.00 64 1015.1
20260905154625 35 80 0.0 0.0 0.00 0.00 0.00 67 1015.2
20260905151620 32 80 0.0 0.0 0.00 0.00 0.00 70 1015.2
20260905144620 31 80 0.0 0.0 0.00 0.00 0.00 78 1015.4
20260905141618 29 80 0.0 0.0 0.00 0.00 0.00 86 1015.5
20260905134618 26 80 0.0 0.0 0.00 0.00 0.00 94 1015.6
20260905131614 25 80 0.0 0.0 0.00 0.00 0.00 99 1015.6
20260905124612 23 80 0.0 0.0 0.00 0.00 0.00 99 1015.8
20260905121607 22 80 0.0 0.0 0.00 0.00 0.00 99 1015.6
20260905114601 22 80 0.0 0.0 0.00 0.00 0.00 99 1015.3
20260905111600 22 80 0.0 0.0 0.00 0.00 0.00 99 1014.8
20260905104555 22 80 0.0 0.0 0.00 0.00 0.00 99 1014.9
20260905101554 22 80 0.0 0.0 0.00 0.00 0.00 99 1014.7
20260905094551 22 80 0.0 0.0 0.00 0.00 0.00 99 1014.6
20260905091547 23 80 0.0 0.0 0.00 0.00 0.00 99 1014.5
20260905084543 23 80 0.0 0.0 0.00 0.00 0.00 99 1014.5